Skip Page Navigation
NASA JPL Caltech
NASA Logo - Jet Propulsion Laboratory + View the NASA Portal
+ Center for Near-Earth Object Studies
JPL Home Earth Solar System Stars & Galaxies Technology
JPL Solar System Dynamics
BODIES ORBITS EPHEMERIDES TOOLS PHYSICAL DATA DISCOVERY FAQ SITE MAP
JPL Small-Body Database Browser
Search: [ help ]  
186630 (2003 GB37)
Classification: Main-belt Asteroid          SPK-ID: 2186630
Ephemeris | Orbit Diagram | Orbital Elements | Mission Design | Physical Parameters | Discovery Circumstances | Close-Approach Data ]

[ show orbit diagram ]
Orbital Elements at Epoch 2459396.5 (2021-Jul-01.0) TDB
Reference: JPL 17 (heliocentric ecliptic J2000)
 Element Value Uncertainty (1-sigma)   Units 
e .1978695756009863 4.7355e-08  
a 2.790843631176022 1.5139e-08 au
q 2.238620586306507 1.3561e-07 au
i 10.61699523376655 5.4911e-06 deg
node 85.28478022320837 2.5816e-05 deg
peri 55.23236420653151 3.2169e-05 deg
M 353.863825777448 1.5964e-05 deg
tp 2459425.526646504702
(2021-Jul-30.02664650)
7.5536e-05 TDB
period 1702.949160616704
4.66
1.3856e-05
3.794e-08
d
yr
n .2113979726027934 1.7201e-09 deg/d
Q 3.343066676045537 1.8134e-08 au
  Orbit Determination Parameters
   # obs. used (total)      364  
   data-arc span      6988 days (19.13 yr)  
   first obs. used      2001-11-18  
   last obs. used      2021-01-05  
   planetary ephem.      DE441  
   SB-pert. ephem.      SB441-N16  
   condition code      0  
   norm. resid. RMS      .54197  
   source      ORB  
   producer      Otto Matic  
   solution date      2021-Apr-13 21:52:02  

Additional Information
 Earth MOID = 1.27223 au 
 Jupiter MOID = 1.78941 au 
 T_jup = 3.276 
[ show covariance matrix ]

Ephemeris | Orbit Diagram | Orbital Elements | Mission Design | Physical Parameters | Discovery Circumstances | Close-Approach Data ]

Physical Parameter Table
Parameter Symbol Value Units Sigma Reference Notes
absolute magnitude H 16.23   n/a MPCxxxxx  

186630 (2003 GB37)          Discovered 2003-Apr-06 by LONEOS at Anderson Mesa
Reference: 20080520/Numbers.arcLast Updated: 2008-05-22

[ show close-approach data ]
Ephemeris | Orbit Diagram | Orbital Elements | Mission Design | Physical Parameters | Discovery Circumstances | Close-Approach Data ]
ABOUT SSD CREDITS/AWARDS PRIVACY/COPYRIGHT GLOSSARY LINKS
FirstGov 2021-Jul-23 23:37 UT
(server date/time)  
NASA Home Page
Site Manager:   Ryan S. Park
Webmaster  Alan B. Chamberlin